EW9528 Weather Reports


Display with metric or nautical units.
time (UTC)temp
F
wind
direction
speed
MPH
gust
MPH
rain 1hr
in
rain 24hr
in
rain mn
in
humidity
%
barometer
mb
20260509220715 73 31 8.0 13.0 0.00 0.00 0.00 16 1020.8
20260509215731 73 14 8.0 14.0 0.00 0.00 0.00 17 1020.8
20260509214830 72 26 10.0 14.0 0.00 0.00 0.00 16 1020.8
20260509213815 72 26 12.0 16.0 0.00 0.00 0.00 16 1020.8
20260509212914 73 4 8.0 13.0 0.00 0.00 0.00 17 1020.9
20260509212815 73 6 10.0 18.0 0.00 0.00 0.00 18 1020.9
20260509210832 73 33 10.0 14.0 0.00 0.00 0.00 19 1021.1
20260509205817 73 357 3.0 5.0 0.00 0.00 0.00 18 1021.3
20260509203914 72 16 6.0 11.0 0.00 0.00 0.00 18 1021.2
20260509202916 72 23 10.0 18.0 0.00 0.00 0.00 19 1021.1
20260509201915 71 27 8.0 13.0 0.00 0.00 0.00 19 1021.4
20260509200916 71 25 10.0 15.0 0.00 0.00 0.00 19 1021.5
20260509200014 71 9 7.0 12.0 0.00 0.00 0.00 19 1021.6
20260509195015 70 22 6.0 9.0 0.00 0.00 0.00 19 1021.6
20260509194032 70 22 11.0 17.0 0.00 0.00 0.00 19 1021.6
20260509193115 70 28 13.0 20.0 0.00 0.00 0.00 18 1021.6
20260509192116 70 13 7.0 12.0 0.00 0.00 0.00 18 1021.9
20260509190115 70 5 7.0 12.0 0.00 0.00 0.00 19 1022.1
20260509185116 70 24 7.0 10.0 0.00 0.00 0.00 18 1022.1
20260509184115 70 9 5.0 9.0 0.00 0.00 0.00 20 1022.3
20260509183130 69 13 7.0 12.0 0.00 0.00 0.00 19 1022.1
20260509182215 69 26 11.0 19.0 0.00 0.00 0.00 20 1021.8
20260509181231 69 23 9.0 16.0 0.00 0.00 0.00 19 1022.1
20260509175216 69 30 7.0 14.0 0.00 0.00 0.00 20 1022.0
20260509174215 68 22 9.0 17.0 0.00 0.00 0.00 20 1022.2
20260509173232 68 23 9.0 13.0 0.00 0.00 0.00 20 1022.3
20260509171413 67 24 8.0 14.0 0.00 0.00 0.00 22 1022.4
20260509170416 66 26 11.0 14.0 0.00 0.00 0.00 22 1022.1
20260509165514 66 32 10.0 12.0 0.00 0.00 0.00 22 1022.2
20260509164515 67 24 11.0 18.0 0.00 0.00 0.00 22 1022.2
20260509163515 67 7 8.0 13.0 0.00 0.00 0.00 21 1022.4
20260509163416 67 5 8.0 12.0 0.00 0.00 0.00 22 1022.5
20260509160516 66 28 10.0 16.0 0.00 0.00 0.00 22 1022.6
20260509155515 66 23 8.0 19.0 0.00 0.00 0.00 22 1022.5
20260509153630 66 29 8.0 15.0 0.00 0.00 0.00 24 1022.5
20260509150715 64 22 10.0 14.0 0.00 0.00 0.00 24 1022.0
20260509145732 64 354 5.0 10.0 0.00 0.00 0.00 24 1022.2
20260509144815 64 19 5.0 9.0 0.00 0.00 0.00 24 1022.2
20260509143832 64 353 5.0 8.0 0.00 0.00 0.00 24 1022.2
20260509142815 63 8 7.0 11.0 0.00 0.00 0.00 25 1022.1
20260509140914 63 359 3.0 6.0 0.00 0.00 0.00 27 1022.1
20260509140832 62 339 2.0 7.0 0.00 0.00 0.00 27 1022.0
20260509134816 61 353 4.0 7.0 0.00 0.00 0.00 28 1022.0
20260509132815 59 341 2.0 6.0 0.00 0.00 0.00 29 1021.8
20260509132717 59 355 4.0 7.0 0.00 0.00 0.00 29 1021.6
20260509131717 59 349 5.0 8.0 0.00 0.00 0.00 29 1021.5
20260509130714 58 335 2.0 7.0 0.00 0.00 0.00 30 1021.4
20260509125730 58 359 4.0 6.0 0.00 0.00 0.00 29 1021.1
20260509124818 57 311 2.0 5.0 0.00 0.00 0.00 30 1021.1
20260509123829 56 360 2.0 3.0 0.00 0.00 0.00 31 1021.1
20260509121913 57 350 3.0 7.0 0.00 0.00 0.00 29 1020.8
20260509120916 57 350 2.0 4.0 0.00 0.00 0.00 28 1020.6
20260509115917 57 270 0.0 1.0 0.00 0.00 0.00 28 1020.6
20260509114917 58 337 0.0 0.0 0.00 0.00 0.00 26 1020.4
20260509113917 59 342 1.0 4.0 0.00 0.00 0.00 27 1020.5
20260509111917 58 11 3.0 5.0 0.00 0.00 0.00 28 1020.3
20260509110916 58 22 2.0 4.0 0.00 0.00 0.00 29 1020.3
20260509104915 60 45 0.0 1.0 0.00 0.00 0.00 26 1020.1
20260509103914 60 334 0.0 5.0 0.00 0.00 0.00 26 1020.0
20260509102916 61 360 2.0 4.0 0.00 0.00 0.00 25 1019.9
20260509101915 61 14 3.0 7.0 0.00 0.00 0.00 25 1019.8
20260509100916 62 29 6.0 10.0 0.00 0.00 0.00 25 1019.5
20260509094917 62 8 4.0 6.0 0.00 0.00 0.00 25 1019.4
20260509093916 62 14 7.0 11.0 0.00 0.00 0.00 25 1019.2
20260509092916 62 19 7.0 10.0 0.00 0.00 0.00 27 1019.0
20260509091915 62 9 7.0 14.0 0.00 0.00 0.00 27 1018.8
20260509090915 62 16 11.0 18.0 0.00 0.00 0.00 27 1018.7
20260509090814 62 353 7.0 13.0 0.00 0.00 0.00 28 1018.9
20260509085814 61 9 6.0 9.0 0.00 0.00 0.00 29 1018.7
20260509085715 61 3 7.0 14.0 0.00 0.00 0.00 30 1018.6
20260509084731 61 8 3.0 5.0 0.00 0.00 0.00 30 1018.7
20260509083814 60 259 3.0 5.0 0.00 0.00 0.00 33 1018.7
20260509081815 58 222 2.0 4.0 0.00 0.00 0.00 35 1018.7
20260509080815 59 208 2.0 4.0 0.00 0.00 0.00 36 1018.7
20260509075914 58 247 2.0 4.0 0.00 0.00 0.00 36 1018.5
20260509074914 59 270 0.0 1.0 0.00 0.00 0.00 34 1018.7
20260509074814 59 287 0.0 0.0 0.00 0.00 0.00 35 1018.7
20260509073816 59 292 1.0 1.0 0.00 0.00 0.00 34 1018.5
20260509072915 58 337 0.0 0.0 0.00 0.00 0.00 35 1018.5
20260509071916 57 225 0.0 0.0 0.00 0.00 0.00 35 1018.3
20260509071814 58 225 0.0 0.0 0.00 0.00 0.00 36 1018.3
20260509070914 58 225 1.0 1.0 0.00 0.00 0.00 35 1018.3
20260509070815 58 225 1.0 2.0 0.00 0.00 0.00 36 1018.2
20260509065814 58 247 1.0 1.0 0.00 0.00 0.00 35 1018.2
20260509064814 58 247 1.0 1.0 0.00 0.00 0.00 33 1018.2
20260509063815 60 202 4.0 4.0 0.00 0.00 0.00 33 1018.0
20260509062831 61 22 0.0 1.0 0.00 0.00 0.00 33 1017.9
20260509061917 61 6 4.0 7.0 0.00 0.00 0.00 33 1018.0
20260509060915 61 28 7.0 8.0 0.00 0.00 0.00 32 1017.9
20260509055939 60 324 3.0 7.0 0.00 0.00 0.00 32 1018.0
20260509054924 60 284 4.0 7.0 0.00 0.00 0.00 33 1017.8
20260509053922 60 225 2.0 3.0 0.00 0.00 0.00 31 1017.9
20260509052922 61 45 0.0 0.0 0.00 0.00 0.00 32 1017.8
20260509051923 61 45 0.0 0.0 0.00 0.00 0.00 32 1017.8
20260509050924 61 45 0.0 0.0 0.00 0.00 0.00 32 1017.8
20260509050022 62 45 0.0 0.0 0.00 0.00 0.00 31 1017.6
20260509043124 63 315 2.0 3.0 0.00 0.00 0.00 30 1017.8
20260509041221 63 180 1.0 2.0 0.00 0.00 0.00 31 1017.6
20260509040321 64 157 0.0 0.0 0.00 0.00 0.00 28 1017.4
20260509035323 65 292 0.0 0.0 0.00 0.00 0.00 27 1017.4
20260509034322 65 292 1.0 2.0 0.00 0.00 0.00 27 1017.3
20260509033323 65 292 1.0 3.0 0.00 0.00 0.00 27 1017.2
20260509032321 65 292 1.0 2.0 0.00 0.00 0.00 27 1017.1
20260509031323 66 292 2.0 2.0 0.00 0.00 0.00 27 1017.1
20260509030322 66 292 2.0 3.0 0.00 0.00 0.00 26 1017.2
20260509024420 67 360 0.0 0.0 0.00 0.00 0.00 25 1017.0
20260509021437 71 360 0.0 0.0 0.00 0.00 0.00 22 1016.8
20260509020523 72 360 1.0 3.0 0.00 0.00 0.00 20 1016.6
20260509015520 73 45 3.0 5.0 0.00 0.00 0.00 19 1016.7
20260509014521 74 27 4.0 6.0 0.00 0.00 0.00 19 1016.6
20260509013522 74 35 4.0 5.0 0.00 0.00 0.00 20 1016.6
20260509012521 75 34 3.0 6.0 0.00 0.00 0.00 20 1016.6
20260509011522 75 20 8.0 13.0 0.00 0.00 0.00 19 1016.7
20260509010523 75 10 6.0 11.0 0.00 0.00 0.00 18 1016.7
20260509005523 76 22 6.0 10.0 0.00 0.00 0.00 19 1016.8
20260509004621 75 4 6.0 11.0 0.00 0.00 0.00 19 1016.9
20260509004522 75 19 8.0 13.0 0.00 0.00 0.00 18 1016.9
20260509003523 76 41 9.0 13.0 0.00 0.00 0.00 19 1017.0
20260509003421 76 32 6.0 8.0 0.00 0.00 0.00 18 1017.1
20260509002422 76 7 5.0 8.0 0.00 0.00 0.00 18 1017.0
20260509002321 76 29 6.0 10.0 0.00 0.00 0.00 19 1017.1
20260509001239 76 9 4.0 6.0 0.00 0.00 0.00 19 1017.1
20260509000222 76 23 5.0 9.0 0.00 0.00 0.00 18 1017.2
20260508235222 76 36 8.0 11.0 0.00 0.00 0.00 18 1017.0
20260508234321 76 19 10.0 13.0 0.00 0.00 0.00 19 1017.0
20260508234222 76 16 7.0 13.0 0.00 0.00 0.00 19 1016.9
20260508233322 76 32 8.0 12.0 0.00 0.00 0.00 18 1016.9
20260508232321 76 41 8.0 11.0 0.00 0.00 0.00 18 1017.0
20260508230421 76 6 7.0 15.0 0.00 0.00 0.00 19 1017.3
20260508225521 76 34 11.0 13.0 0.00 0.00 0.00 20 1017.4
20260508224522 76 31 12.0 18.0 0.00 0.00 0.00 19 1017.3
20260508223522 76 32 11.0 18.0 0.00 0.00 0.00 19 1017.4
20260508222523 76 26 6.0 11.0 0.00 0.00 0.00 19 1017.6